TimeGMT,TemperatureF,Dew PointF,Humidity,Sea Level PressureIn,VisibilityMPH,Wind Direction,Wind SpeedMPH,Gust SpeedMPH,PrecipitationIn,Events,Conditions,WindDirDegrees,DateUTC
12:20 AM,37.4,30.2,75,29.68,4.3,ENE,9.2,-,N/A,Rain-Snow,Light Rain,70,2013-01-23 00:20:00
12:50 AM,35.6,32.0,87,29.68,3.7,ENE,10.4,-,N/A,Rain-Snow,Light Rain,60,2013-01-23 00:50:00
1:20 AM,35.6,32.0,87,29.71,3.7,ENE,10.4,-,N/A,,Mostly Cloudy,60,2013-01-23 01:20:00
1:50 AM,35.6,30.2,81,29.71,3.7,ENE,10.4,-,N/A,,Light Drizzle,60,2013-01-23 01:50:00
2:20 AM,35.6,30.2,81,29.71,3.7,ENE,9.2,-,N/A,Rain,Light Rain,60,2013-01-23 02:20:00
2:50 AM,36,31,75,29.73,5,ENE,9.2,,,Rain,Rain,60,2013-01-23 02:50:00
2:50 AM,35.6,30.2,81,29.71,4.3,ENE,10.4,-,N/A,,Mostly Cloudy,70,2013-01-23 02:50:00
3:20 AM,35.6,30.2,81,29.71,4.3,ENE,10.4,-,N/A,,Mostly Cloudy,70,2013-01-23 03:20:00
3:50 AM,35.6,30.2,81,29.71,4.3,ENE,10.4,-,N/A,,Mostly Cloudy,60,2013-01-23 03:50:00
4:20 AM,35.6,30.2,81,29.71,4.3,ENE,9.2,-,N/A,,Mostly Cloudy,60,2013-01-23 04:20:00
4:50 AM,35.6,30.2,81,29.71,4.3,ENE,6.9,-,N/A,,Mostly Cloudy,60,2013-01-23 04:50:00
5:20 AM,35.6,30.2,81,29.71,4.3,ENE,8.1,-,N/A,,Mostly Cloudy,60,2013-01-23 05:20:00
5:50 AM,35,31,78,29.73,6,NE,8.1,,,,Unknown Precipitation,50,2013-01-23 05:50:00
5:50 AM,35.6,30.2,81,29.71,4.3,ENE,8.1,-,N/A,,Mostly Cloudy,60,2013-01-23 05:50:00
6:20 AM,35.6,30.2,81,29.74,4.3,NE,5.8,-,N/A,,Mostly Cloudy,50,2013-01-23 06:20:00
6:50 AM,35.6,30.2,81,29.74,5.0,ENE,8.1,-,N/A,,Mostly Cloudy,60,2013-01-23 06:50:00
7:20 AM,35.6,30.2,81,29.74,5.6,ENE,8.1,-,N/A,,Mostly Cloudy,70,2013-01-23 07:20:00
7:50 AM,33.8,30.2,87,29.74,4.3,ENE,8.1,-,N/A,Snow,Light Snow,70,2013-01-23 07:50:00
8:20 AM,33.8,30.2,87,29.77,5.0,ENE,6.9,-,N/A,,Mostly Cloudy,60,2013-01-23 08:20:00
8:50 AM,35,30,76,29.78,3,NE,8.1,,,Snow,Light Snow Showers,50,2013-01-23 08:50:00
8:50 AM,33.8,30.2,87,29.77,3.1,ENE,8.1,-,N/A,Snow,Light Snow,60,2013-01-23 08:50:00
9:20 AM,33.8,30.2,87,29.77,5.0,ENE,6.9,-,N/A,,Mostly Cloudy,60,2013-01-23 09:20:00
9:50 AM,35.6,30.2,81,29.77,5.0,ENE,6.9,-,N/A,,Mostly Cloudy,60,2013-01-23 09:50:00
10:20 AM,35.6,30.2,81,29.77,4.3,ENE,8.1,-,N/A,,Mostly Cloudy,60,2013-01-23 10:20:00
10:50 AM,35.6,30.2,81,29.77,4.3,ENE,9.2,-,N/A,,Overcast,70,2013-01-23 10:50:00
11:20 AM,35.6,30.2,81,29.80,4.3,ENE,9.2,-,N/A,,Mostly Cloudy,60,2013-01-23 11:20:00
11:50 AM,36,31,73,29.79,5,ENE,8.1,,,,Light Haze,60,2013-01-23 11:50:00
11:50 AM,35.6,30.2,81,29.77,4.3,ENE,9.2,-,N/A,,Mostly Cloudy,70,2013-01-23 11:50:00
12:20 PM,35.6,30.2,81,29.77,3.7,ENE,8.1,-,N/A,Snow,Light Snow Grains,60,2013-01-23 12:20:00
12:50 PM,35.6,32.0,87,29.77,-9999.0,ENE,9.2,-,N/A,Snow,Light Snow,70,2013-01-23 12:50:00
1:20 PM,35.6,32.0,87,29.77,3.1,ENE,9.2,-,N/A,,Mostly Cloudy,70,2013-01-23 13:20:00
1:50 PM,35.6,32.0,87,29.77,2.8,ENE,6.9,-,N/A,,Mostly Cloudy,70,2013-01-23 13:50:00
2:20 PM,35.6,32.0,87,29.74,3.1,ENE,6.9,-,N/A,,Mostly Cloudy,70,2013-01-23 14:20:00
2:50 PM,36,32,81,29.77,4,ENE,8.1,,,,Unknown Precipitation,60,2013-01-23 14:50:00
2:50 PM,35.6,32.0,87,29.74,3.1,ENE,6.9,-,N/A,,Mostly Cloudy,60,2013-01-23 14:50:00
3:20 PM,35.6,32.0,87,29.77,3.1,East,11.5,-,N/A,Rain-Snow,Light Rain,90,2013-01-23 15:20:00
3:50 PM,35.6,32.0,87,29.74,4.3,East,13.8,-,N/A,Rain,Light Rain,90,2013-01-23 15:50:00
4:20 PM,35.6,30.2,81,29.74,3.1,East,13.8,-,N/A,Rain,Light Rain,90,2013-01-23 16:20:00
4:50 PM,33.8,30.2,87,29.77,2.8,East,10.4,-,N/A,Rain-Snow,Light Rain,100,2013-01-23 16:50:00
5:20 PM,35.6,30.2,81,29.77,3.1,East,10.4,-,N/A,Rain,Light Rain,90,2013-01-23 17:20:00
5:50 PM,35,31,81,29.77,4,East,10.4,,,Rain,Rain,90,2013-01-23 17:50:00
5:50 PM,35.6,30.2,81,29.77,3.7,East,11.5,-,N/A,,Mostly Cloudy,90,2013-01-23 17:50:00
6:20 PM,35.6,30.2,81,29.77,3.7,East,10.4,-,N/A,Rain-Snow,Light Rain,90,2013-01-23 18:20:00
6:50 PM,35.6,30.2,81,29.77,4.3,East,9.2,-,N/A,,Mostly Cloudy,80,2013-01-23 18:50:00
7:20 PM,35.6,30.2,81,29.77,5.0,East,11.5,-,N/A,,Mostly Cloudy,80,2013-01-23 19:20:00
7:50 PM,35.6,30.2,81,29.77,5.0,East,10.4,-,N/A,,Mostly Cloudy,90,2013-01-23 19:50:00
8:20 PM,35.6,28.4,75,29.77,5.6,East,11.5,-,N/A,,Mostly Cloudy,90,2013-01-23 20:20:00
8:50 PM,35,30,74,29.79,6,East,11.5,,,,Unknown Precipitation,80,2013-01-23 20:50:00
8:50 PM,35.6,30.2,81,29.77,5.0,East,12.7,-,N/A,,Mostly Cloudy,90,2013-01-23 20:50:00
9:20 PM,35.6,30.2,81,29.80,4.3,East,12.7,-,N/A,,Mostly Cloudy,90,2013-01-23 21:20:00
9:50 PM,35.6,30.2,81,29.80,4.3,East,12.7,-,N/A,,Scattered Clouds,90,2013-01-23 21:50:00
10:20 PM,35.6,30.2,81,29.80,3.7,East,11.5,-,N/A,,Overcast,90,2013-01-23 22:20:00
10:50 PM,35.6,30.2,81,29.80,3.7,East,12.7,-,N/A,,Mostly Cloudy,90,2013-01-23 22:50:00
11:20 PM,35.6,30.2,81,29.80,3.7,East,11.5,-,N/A,,Scattered Clouds,90,2013-01-23 23:20:00
11:50 PM,35,30,74,29.83,5,East,13.8,,,,Light Haze,100,2013-01-23 23:50:00
11:50 PM,35.6,30.2,81,29.83,4.3,East,12.7,-,N/A,,Mostly Cloudy,100,2013-01-23 23:50:00